CW1656 Weather Reports


Display with metric or nautical units.
time (UTC)temp
F
wind
direction
speed
MPH
gust
MPH
rain 1hr
in
rain 24hr
in
rain mn
in
humidity
%
barometer
mb
20260904041519 69 175 0.0 0.0 0.00 0.35 0.00 98 1014.8
20260904040024 69 175 0.0 0.0 0.00 0.35 0.00 98 1014.6
20260904034513 69 175 0.0 0.0 0.00 0.35 0.35 98 1014.5
20260904033011 70 175 0.0 0.0 0.00 0.35 0.35 98 1014.4
20260904031517 70 175 0.0 0.0 0.00 0.35 0.35 98 1014.4
20260904030010 70 175 0.0 0.0 0.00 0.35 0.35 98 1014.3
20260904024511 71 175 0.0 0.0 0.00 0.35 0.35 98 1014.1
20260904023016 71 175 0.0 0.0 0.00 0.35 0.35 98 1014.3
20260904021524 71 175 0.0 0.0 0.01 0.35 0.35 97 1014.4
20260904020007 71 175 0.0 0.0 0.01 0.35 0.35 97 1014.3
20260904014506 72 175 0.0 0.0 0.12 0.38 0.35 97 1014.2
20260904013006 72 175 0.0 0.0 0.31 0.38 0.35 97 1014.3
20260904011505 72 175 0.0 0.0 0.31 0.37 0.34 97 1014.1
20260904010005 72 190 0.0 5.0 0.31 0.37 0.34 96 1014.2
20260904004504 73 292 1.0 5.0 0.18 0.30 0.21 96 1013.7
20260904003005 74 264 0.0 0.0 0.01 0.13 0.04 96 1013.6
20260904001502 74 264 0.0 1.0 0.00 0.12 0.03 96 1013.3
20260904000002 74 264 0.0 0.0 0.00 0.12 0.03 96 1013.5
20260903234502 74 264 0.0 0.0 0.00 0.80 0.03 96 1013.4
20260903233000 74 264 0.0 0.0 0.00 0.80 0.03 95 1013.5
20260903231608 75 264 0.0 0.0 0.00 0.80 0.03 95 1013.5
20260903230100 75 264 0.0 0.0 0.00 0.80 0.03 94 1013.5
20260903224600 75 264 0.0 0.0 0.00 0.80 0.03 94 1013.6
20260903223108 76 264 0.0 0.0 0.00 0.80 0.03 94 1013.3
20260903221558 75 264 0.0 0.0 0.00 0.80 0.03 94 1013.1
20260903220100 76 264 0.0 0.0 0.00 0.80 0.03 94 1013.1
20260903214556 76 264 0.0 0.0 0.00 0.80 0.03 95 1013.2
20260903213109 76 264 0.0 0.0 0.00 0.80 0.03 95 1013.2
20260903211554 75 264 0.0 2.0 0.00 0.80 0.03 95 1013.4
20260903210058 75 264 0.0 1.0 0.02 0.80 0.03 95 1013.5
20260903204554 75 282 0.0 2.0 0.02 0.80 0.03 94 1013.3
20260903203056 76 274 0.0 2.0 0.02 0.80 0.03 91 1013.5
20260903201553 78 315 1.0 7.0 0.02 0.80 0.03 86 1013.7
20260903200052 80 284 0.0 2.0 0.00 0.78 0.01 81 1013.6
20260903194552 81 170 1.0 4.0 0.00 0.78 0.01 79 1013.6
20260903193052 80 130 1.0 4.0 0.00 0.78 0.01 81 1013.6
20260903191551 80 271 0.0 8.0 0.00 0.78 0.01 78 1013.8
20260903190051 82 27 0.0 4.0 0.00 0.78 0.01 77 1013.7
20260903184552 82 284 1.0 5.0 0.00 0.78 0.01 77 1013.8
20260903183150 81 246 0.0 6.0 0.00 0.78 0.01 78 1014.0
20260903181548 81 78 1.0 8.0 0.00 0.78 0.01 78 1014.1
20260903180050 82 138 1.0 3.0 0.00 0.78 0.01 79 1014.0
20260903174548 82 333 1.0 6.0 0.00 0.78 0.01 78 1014.0
20260903173044 80 132 2.0 7.0 0.00 0.78 0.01 81 1014.2
20260903171546 80 260 1.0 4.0 0.00 0.78 0.01 81 1014.1
20260903170047 79 286 0.0 4.0 0.00 0.78 0.01 80 1014.3
20260903164542 79 107 0.0 3.0 0.00 0.78 0.01 79 1014.4
20260903163054 79 317 0.0 4.0 0.00 0.78 0.01 79 1014.3
20260903161536 78 166 0.0 4.0 0.00 0.78 0.01 80 1014.4
20260903160037 78 119 0.0 2.0 0.00 0.78 0.01 82 1014.6
20260903154534 78 284 0.0 1.0 0.00 0.78 0.01 83 1014.8
20260903153033 77 290 0.0 3.0 0.00 0.78 0.01 88 1014.9
20260903151530 75 109 0.0 3.0 0.00 0.78 0.01 91 1015.0
20260903150025 74 142 0.0 3.0 0.00 0.78 0.01 96 1014.9
20260903144522 73 302 0.0 3.0 0.00 0.78 0.01 98 1015.1
20260903143016 72 119 0.0 3.0 0.00 0.78 0.01 98 1015.1
20260903141513 72 302 1.0 3.0 0.00 0.78 0.01 98 1015.1
20260903140014 71 47 0.0 3.0 0.00 0.78 0.01 99 1015.0
20260903134508 71 166 0.0 3.0 0.00 0.78 0.01 99 1015.0
20260903133003 70 119 0.0 3.0 0.00 0.78 0.01 99 1015.1
20260903131502 70 340 0.0 3.0 0.00 0.78 0.01 99 1015.3
20260903130001 70 347 0.0 3.0 0.00 0.78 0.01 99 1015.3
20260903124603 70 127 1.0 4.0 0.00 0.94 0.01 99 1015.5
20260903123055 69 166 0.0 3.0 0.00 0.94 0.01 99 1015.3
20260903121556 69 267 0.0 3.0 0.00 0.94 0.01 99 1015.2
20260903120116 68 85 0.0 2.0 0.00 0.94 0.01 99 1014.9
20260903114600 68 333 0.0 1.0 0.00 0.94 0.01 99 1014.8
20260903113047 68 62 0.0 2.0 0.00 0.94 0.01 99 1014.7
20260903111545 67 279 0.0 2.0 0.00 0.94 0.01 99 1014.6
20260903110047 67 273 0.0 2.0 0.00 0.94 0.01 99 1014.4
20260903104544 67 116 0.0 0.0 0.00 0.95 0.01 99 1014.2
20260903103042 67 116 0.0 1.0 0.00 0.95 0.01 99 1014.3
20260903101541 67 172 0.0 1.0 0.00 0.95 0.01 99 1014.0
20260903100045 67 172 0.0 0.0 0.00 0.95 0.01 99 1013.8
20260903094543 67 172 0.0 0.0 0.00 0.95 0.01 99 1013.7
20260903093039 67 172 0.0 1.0 0.00 0.95 0.01 99 1013.6
20260903091538 67 172 0.0 0.0 0.00 0.95 0.01 99 1013.9
20260903090037 67 172 0.0 0.0 0.00 0.95 0.01 99 1013.9
20260903084539 67 172 0.0 0.0 0.00 0.95 0.01 98 1013.8
20260903083044 67 172 0.0 0.0 0.00 0.95 0.01 98 1013.6
20260903081535 67 172 0.0 1.0 0.00 0.95 0.01 98 1013.6
20260903080033 68 172 0.0 1.0 0.00 0.95 0.01 99 1013.5
20260903074533 68 172 0.0 1.0 0.00 0.95 0.01 99 1013.3
20260903073036 68 172 0.0 1.0 0.00 0.95 0.01 99 1013.3
20260903071532 68 172 0.0 1.0 0.01 0.95 0.01 99 1013.4
20260903070030 68 172 0.0 0.0 0.01 0.95 0.01 99 1013.6
20260903064529 68 172 0.0 1.0 0.01 0.95 0.01 98 1013.7
20260903063028 68 198 0.0 1.0 0.01 0.95 0.01 98 1013.8
20260903061541 68 291 0.0 1.0 0.00 0.94 0.00 98 1013.5
20260903060027 68 161 0.0 1.0 0.00 0.94 0.00 98 1013.5
20260903054526 68 161 0.0 0.0 0.00 0.94 0.00 98 1013.7
20260903053026 68 161 0.0 0.0 0.00 0.94 0.00 98 1014.1
20260903051522 68 161 0.0 0.0 0.00 0.94 0.00 98 1013.7
20260903050024 68 161 0.0 0.0 0.00 0.94 0.00 98 1013.4
20260903044520 68 161 0.0 1.0 0.00 0.94 0.00 98 1013.4
20260903043018 68 161 0.0 2.0 0.00 0.94 0.00 98 1013.0